Torna al catalogo

STARLINK-5394

AttivoComunicazioniVLEO
NORAD 54830·PAYLOAD·🇺🇸 United States

Lanciato Dec 28, 2022 da Cape Canaveral Space Force Station

Loading…

Prossimi Passaggi (prossime 24 ore)

TLE

AggiornatoSource: CelesTrak SupGP

Epoca: Sep 14, 2026, 21:21 UTC

1 54830C 22177L   26257.89006944 -.00121820  00000+0 -44118-2 0  2573
2 54830  43.0023 147.9098 0001207 271.1687 137.3777 15.27642806    11

Traccia STARLINK-5394 in tempo reale con AllMySat

Download on the App Store